Weather History for KUNO - February, 2013

Change the Weather History Date:

Thursday, February 21, 2013

  Actual Average Record
Temperature  
Mean Temperature 28 °F 39 °F  
Max Temperature 31 °F 51 °F 74 °F (1996)
Min Temperature 25 °F 28 °F 2 °F (1963)
Degree Days  
Heating Degree Days 37 26  
Month to date heating degree days 550 590  
Since 1 July heating degree days 3096 3294  
Cooling Degree Days 0 0  
Month to date cooling degree days 0 0  
Year to date cooling degree days 0 0  
Moisture  
Dew Point 25 °F    
Average Humidity 75    
Maximum Humidity 100    
Minimum Humidity 50    
Precipitation  
Precipitation 0.15 in 0.11 in 1.67 in (1974)
Month to date precipitation 2.03 2.12  
Year to date precipitation 5.41 4.84  
Sea Level Pressure  
Sea Level Pressure 29.89 in    
Wind  
Wind Speed 11 mph (ESE)    
Max Wind Speed 24 mph    
Max Gust Speed 33 mph    
Visibility 4 miles    
Events Fog , Rain , Snow , Thunderstorm    
T = Trace of Precipitation, MM = Missing Value Source: NWS Daily Summary

Daily Weather History Graph

Daily Weather History Graph

Search for Another Location

Airport or City:

Trip Planner

Search our weather history database for the weather conditions in past years. The results will help you decide how hot, cold, wet, or windy it might be!

Date:

Astronomy

Feb. 21, 2013 Rise Set
Actual Time 6:48 AM CST 5:54 PM CST
Civil Twilight 6:22 AM CST 6:20 PM CST
Nautical Twilight 5:52 AM CST 6:50 PM CST
Astronomical Twilight 5:22 AM CST 7:20 PM CST
Moon 2:13 PM CST (2/21) 3:49 AM CST (2/21)
Length of Visible Light 11h 58m
Length of Day
11h 05m
Waxing Gibbous, 84% of the Moon is Illuminated
Feb 21
Waxing Gibbous
Feb 25
Full
Mar 4
Last Quarter
Mar 11
New
Mar 19
First Quarter

Hourly Weather History & Observations

Time (CST) Temp. Windchill Dew Point Humidity Pressure Visibility Wind Dir Wind Speed Gust Speed Precip Events Conditions
12:53 AM 28.0 °F 20.8 °F 15.1 °F 58% 30.22 in 9.0 mi East 6.9 mph - 0.00 in   Overcast
1:53 AM 28.0 °F 20.8 °F 15.1 °F 58% 30.20 in 10.0 mi East 6.9 mph - 0.00 in   Overcast
2:53 AM 27.0 °F 18.0 °F 15.1 °F 61% 30.16 in 10.0 mi ENE 9.2 mph 19.6 mph 0.00 in   Overcast
3:53 AM 27.0 °F 15.6 °F 15.1 °F 61% 30.12 in 10.0 mi East 13.8 mph - N/A   Overcast
4:53 AM 27.0 °F 15.6 °F 15.1 °F 61% 30.10 in 10.0 mi East 13.8 mph 18.4 mph N/A   Overcast
6:38 AM 26.6 °F 16.2 °F 17.6 °F 69% 30.04 in 8.0 mi East 11.5 mph - 0.00 in Rain Light Freezing Rain
7:36 AM 26.6 °F 14.7 °F 19.4 °F 74% 29.98 in 8.0 mi East 15.0 mph 21.9 mph 0.00 in Thunderstorm Thunderstorm
7:44 AM 26.6 °F 16.8 °F 21.2 °F 80% 30.06 in 4.0 mi East 10.4 mph 21.9 mph 0.00 in Rain , Thunderstorm Light Freezing Rain
8:01 AM 26.6 °F 16.2 °F 21.2 °F 80% 30.03 in 2.0 mi East 11.5 mph 23.0 mph N/A Rain , Thunderstorm Light Freezing Rain
8:08 AM 26.6 °F 15.7 °F 21.2 °F 80% 30.03 in 3.0 mi East 12.7 mph 19.6 mph N/A Rain , Thunderstorm Light Freezing Rain
8:21 AM 24.8 °F 12.4 °F 21.2 °F 86% 30.01 in 4.0 mi East 15.0 mph 19.6 mph N/A Rain Light Freezing Rain
8:39 AM 24.8 °F 11.5 °F 21.2 °F 86% 29.99 in 7.0 mi East 17.3 mph 23.0 mph N/A   Overcast
8:53 AM 25.0 °F 12.2 °F 21.0 °F 85% 30.01 in 8.0 mi East 16.1 mph 24.2 mph N/A   Overcast
9:13 AM 26.6 °F 14.3 °F 21.2 °F 80% 29.96 in 8.0 mi East 16.1 mph 26.5 mph N/A   Overcast
9:23 AM 26.6 °F 14.7 °F 21.2 °F 80% 29.94 in 5.0 mi East 15.0 mph 27.6 mph N/A Rain Light Freezing Rain
9:35 AM 26.6 °F 13.4 °F 21.2 °F 80% 29.92 in 8.0 mi East 18.4 mph 26.5 mph N/A Rain Light Freezing Rain
9:43 AM 26.6 °F 15.2 °F 21.2 °F 80% 29.94 in 9.0 mi East 13.8 mph 26.5 mph N/A Rain Light Freezing Rain
9:51 AM 26.6 °F 14.3 °F 21.2 °F 80% 29.93 in 9.0 mi East 16.1 mph 25.3 mph N/A   Overcast
9:53 AM 26.1 °F 15.6 °F 21.0 °F 81% 29.97 in 9.0 mi East 11.5 mph 25.3 mph N/A   Overcast
10:09 AM 26.6 °F 13.1 °F 21.2 °F 80% 29.91 in 10.0 mi East 19.6 mph 26.5 mph N/A Rain Light Freezing Rain
10:37 AM 26.6 °F 14.3 °F 21.2 °F 80% 29.91 in 7.0 mi East 16.1 mph 25.3 mph N/A   Overcast
10:46 AM 26.6 °F 13.1 °F 21.2 °F 80% 29.90 in 4.0 mi East 19.6 mph 25.3 mph N/A   Overcast
10:53 AM 27.0 °F 13.9 °F 23.0 °F 85% 29.93 in 8.0 mi East 18.4 mph 26.5 mph N/A   Overcast
11:18 AM 26.6 °F 15.7 °F 24.8 °F 93% 29.90 in 3.0 mi ESE 12.7 mph 26.5 mph N/A Rain Light Freezing Rain
11:22 AM 26.6 °F 12.7 °F 24.8 °F 93% 29.89 in 3.0 mi East 20.7 mph 25.3 mph N/A Rain , Thunderstorm Light Freezing Rain
11:37 AM 28.4 °F 14.4 °F 24.8 °F 86% 29.87 in 4.0 mi East 23.0 mph 32.2 mph N/A Rain Light Freezing Rain
11:44 AM 28.4 °F 14.7 °F 24.8 °F 86% 29.85 in 2.5 mi East 21.9 mph 32.2 mph N/A Rain , Thunderstorm Light Freezing Rain
11:53 AM 28.0 °F 13.6 °F 25.0 °F 88% 29.86 in 2.0 mi East 24.2 mph 33.4 mph N/A Rain , Thunderstorm Light Freezing Rain
12:03 PM 28.4 °F 17.0 °F 26.6 °F 93% 29.87 in 2.0 mi East 15.0 mph 31.1 mph N/A Rain Light Freezing Rain
12:11 PM 28.4 °F 18.5 °F 26.6 °F 93% 29.95 in 2.0 mi WNW 11.5 mph 21.9 mph N/A Rain Light Freezing Rain
12:18 PM 28.4 °F 17.0 °F 26.6 °F 93% 29.89 in 1.8 mi East 15.0 mph 20.7 mph N/A Rain , Thunderstorm Light Freezing Rain
12:30 PM 28.4 °F 19.7 °F 26.6 °F 93% 29.92 in 1.0 mi East 9.2 mph - N/A Rain Light Freezing Rain
12:37 PM 28.4 °F 24.6 °F 26.6 °F 93% 29.93 in 0.8 mi Variable 3.5 mph - N/A   Overcast
12:41 PM 28.4 °F - 26.6 °F 93% 29.94 in 1.0 mi Calm Calm - N/A Rain Light Freezing Rain
12:53 PM 28.9 °F 22.8 °F 27.0 °F 92% 29.95 in 0.5 mi ENE 5.8 mph - N/A Fog , Rain Light Freezing Rain
1:06 PM 28.4 °F 19.1 °F 26.6 °F 93% 29.86 in 0.2 mi East 10.4 mph - N/A Fog , Rain Light Freezing Rain
1:20 PM 28.4 °F 21.2 °F 28.4 °F 100% 29.90 in 0.8 mi East 6.9 mph - N/A Rain Light Freezing Rain
1:27 PM 28.4 °F 23.3 °F 28.4 °F 100% 29.91 in 0.5 mi ESE 4.6 mph - N/A Fog , Snow Light Snow
1:32 PM 30.2 °F 21.3 °F 28.4 °F 93% 29.85 in 0.8 mi ENE 10.4 mph - N/A Snow , Thunderstorm Light Thunderstorms and Snow
1:37 PM 30.2 °F 21.3 °F 28.4 °F 93% 29.84 in 1.2 mi ENE 10.4 mph - N/A   Overcast
1:39 PM 30.2 °F 20.2 °F 28.4 °F 93% 29.82 in 1.5 mi ENE 12.7 mph - N/A Rain , Thunderstorm Light Freezing Rain
1:50 PM 30.2 °F 21.9 °F 28.4 °F 93% 29.84 in 1.0 mi East 9.2 mph - N/A Snow , Thunderstorm Light Snow
1:53 PM 30.0 °F 21.1 °F 28.0 °F 92% 29.86 in 1.0 mi East 10.4 mph - N/A Snow Light Snow
1:58 PM 30.2 °F 21.3 °F 28.4 °F 93% 29.82 in 1.5 mi East 10.4 mph 20.7 mph 0.00 in   Overcast
2:02 PM 30.2 °F 20.2 °F 28.4 °F 93% 29.84 in 2.0 mi East 12.7 mph 20.7 mph 0.00 in Rain , Thunderstorm Light Freezing Rain
2:10 PM 30.2 °F 21.9 °F 28.4 °F 93% 29.84 in 2.5 mi East 9.2 mph - 0.00 in Rain , Thunderstorm Light Freezing Rain
2:16 PM 30.2 °F 21.3 °F 28.4 °F 93% 29.83 in 2.0 mi East 10.4 mph - N/A Rain Light Freezing Rain
2:28 PM 30.2 °F 18.5 °F 28.4 °F 93% 29.82 in 2.0 mi East 17.3 mph 21.9 mph N/A Rain Light Freezing Rain
2:32 PM 30.2 °F 20.8 °F 26.6 °F 86% 29.82 in 3.0 mi East 11.5 mph 21.9 mph N/A Rain Light Freezing Rain
2:39 PM 30.2 °F 21.3 °F 28.4 °F 93% 29.82 in 2.5 mi East 10.4 mph 21.9 mph N/A Rain Light Freezing Rain
2:48 PM 30.2 °F 20.2 °F 28.4 °F 93% 29.81 in 3.0 mi East 12.7 mph - N/A Rain Light Freezing Rain
2:53 PM 30.9 °F 21.7 °F 28.0 °F 89% 29.84 in 6.0 mi East 11.5 mph 18.4 mph N/A Rain Light Freezing Rain
3:07 PM 30.2 °F 20.2 °F 28.4 °F 93% 29.80 in 5.0 mi East 12.7 mph - 0.02 in Rain Light Freezing Rain
3:14 PM 30.2 °F 20.8 °F 28.4 °F 93% 29.81 in 3.0 mi East 11.5 mph - 0.02 in   Overcast
3:18 PM 30.2 °F 20.8 °F 28.4 °F 93% 29.80 in 2.5 mi East 11.5 mph - 0.02 in Rain Light Freezing Rain
3:27 PM 30.2 °F 20.2 °F 28.4 °F 93% 29.79 in 4.0 mi East 12.7 mph - 0.02 in Rain Light Freezing Rain
3:53 PM 30.9 °F 20.2 °F 28.9 °F 92% 29.81 in 3.0 mi East 15.0 mph 21.9 mph 0.03 in Rain Light Freezing Rain
4:07 PM 30.2 °F 18.5 °F 28.4 °F 93% 29.78 in 2.5 mi ESE 17.3 mph 25.3 mph 0.00 in Rain Light Freezing Rain
4:14 PM 30.2 °F 19.8 °F 28.4 °F 93% 29.78 in 3.0 mi East 13.8 mph 25.3 mph 0.00 in Rain Light Freezing Rain
4:28 PM 30.2 °F 19.8 °F 28.4 °F 93% 29.76 in 2.5 mi ESE 13.8 mph 21.9 mph 0.00 in Rain Light Freezing Rain
4:47 PM 30.2 °F 19.3 °F 28.4 °F 93% 29.78 in 3.0 mi ESE 15.0 mph 19.6 mph 0.00 in Rain Light Freezing Rain
4:53 PM 30.9 °F 21.2 °F 28.0 °F 89% 29.81 in 4.0 mi ESE 12.7 mph 19.6 mph 0.00 in Rain Light Freezing Rain
5:01 PM 30.2 °F 20.2 °F 28.4 °F 93% 29.78 in 5.0 mi ESE 12.7 mph 19.6 mph 0.00 in Rain Light Freezing Rain
5:26 PM 30.2 °F 20.8 °F 28.4 °F 93% 29.78 in 10.0 mi ESE 11.5 mph 21.9 mph 0.00 in   Overcast
5:53 PM 30.9 °F 21.7 °F 28.0 °F 89% 29.81 in 9.0 mi ESE 11.5 mph - 0.00 in   Overcast
6:35 PM 30.2 °F 23.4 °F 28.4 °F 93% 29.79 in 4.0 mi SE 6.9 mph 17.3 mph N/A   Overcast
6:53 PM 30.9 °F 22.2 °F 28.9 °F 92% 29.83 in 3.0 mi ESE 10.4 mph - N/A   Overcast
7:11 PM 30.2 °F 22.6 °F 28.4 °F 93% 29.81 in 2.5 mi ESE 8.1 mph - N/A   Overcast
7:25 PM 30.2 °F 23.4 °F 28.4 °F 93% 29.82 in 3.0 mi SE 6.9 mph - N/A   Overcast
7:53 PM 30.9 °F 25.2 °F 30.0 °F 96% 29.86 in 3.0 mi SSE 5.8 mph - N/A   Overcast
8:53 PM 30.9 °F 24.3 °F 28.9 °F 92% 29.85 in 6.0 mi South 6.9 mph - N/A   Overcast
9:53 PM 30.9 °F 25.2 °F 30.0 °F 96% 29.86 in 7.0 mi South 5.8 mph - 0.01 in   Overcast
10:53 PM 30.9 °F 25.2 °F 28.9 °F 92% 29.84 in 3.0 mi SSW 5.8 mph - N/A   Overcast
11:31 PM 30.2 °F 22.6 °F 28.4 °F 93% 29.83 in 2.0 mi SSW 8.1 mph - N/A   Overcast
11:38 PM 30.2 °F 23.4 °F 28.4 °F 93% 29.82 in 1.0 mi SSW 6.9 mph - N/A   Overcast
11:49 PM 30.2 °F 23.4 °F 28.4 °F 93% 29.82 in 0.8 mi SSW 6.9 mph - N/A   Mist
11:53 PM 30.9 °F 25.2 °F 28.9 °F 92% 29.85 in 0.8 mi SSW 5.8 mph - N/A   Mist